Time,TemperatureF,DewpointF,PressureIn,WindDirection,WindDirectionDegrees,WindSpeedMPH,WindSpeedGustMPH,Humidity,HourlyPrecipIn,Conditions,Clouds,dailyrainin,SolarRadiationWatts/m^2,SoftwareType,DateUTC
2013-06-08 00:02:00,65.0,28.0,30.03,SW,227,2.0,4.0,25,-99.99,,,-99.99,0.000000,,2013-06-08 07:02:00,
2013-06-08 00:10:00,67.0,29.0,30.04,SW,230,1.0,4.0,24,-99.99,,,-99.99,0.000000,,2013-06-08 07:10:00,
2013-06-08 00:52:00,67.0,29.0,30.04,SW,230,1.0,4.0,24,-99.99,,,-99.99,0.000000,,2013-06-08 07:52:00,
2013-06-08 01:02:00,67.0,29.0,30.04,SW,230,1.0,4.0,24,-99.99,,,-99.99,0.000000,,2013-06-08 08:02:00,
2013-06-08 01:10:00,59.0,30.0,30.04,NNE,23,2.0,7.0,33,-99.99,,,-99.99,0.000000,,2013-06-08 08:10:00,
2013-06-08 01:52:00,59.0,30.0,30.04,NNE,23,2.0,7.0,33,-99.99,,,-99.99,0.000000,,2013-06-08 08:52:00,
2013-06-08 02:02:00,59.0,30.0,30.04,NNE,23,2.0,7.0,33,-99.99,,,-99.99,0.000000,,2013-06-08 09:02:00,
2013-06-08 02:10:00,61.0,33.0,30.04,NNW,330,5.0,7.0,34,-99.99,,,-99.99,0.000000,,2013-06-08 09:10:00,
2013-06-08 02:52:00,61.0,33.0,30.04,NNW,330,5.0,7.0,34,-99.99,,,-99.99,0.000000,,2013-06-08 09:52:00,
2013-06-08 03:02:00,61.0,33.0,30.04,NNW,330,5.0,7.0,34,-99.99,,,-99.99,0.000000,,2013-06-08 10:02:00,
2013-06-08 03:10:00,60.0,32.0,30.06,NW,309,6.0,8.0,34,-99.99,,,-99.99,0.000000,,2013-06-08 10:10:00,
2013-06-08 03:52:00,60.0,32.0,30.06,NW,309,6.0,8.0,34,-99.99,,,-99.99,0.000000,,2013-06-08 10:52:00,
2013-06-08 04:02:00,60.0,32.0,30.06,NW,309,6.0,8.0,34,-99.99,,,-99.99,0.000000,,2013-06-08 11:02:00,
2013-06-08 04:10:00,64.0,36.0,30.06,NW,304,5.0,7.0,36,-99.99,,,-99.99,0.000000,,2013-06-08 11:10:00,
2013-06-08 04:52:00,64.0,36.0,30.06,NW,304,5.0,7.0,36,-99.99,,,-99.99,0.000000,,2013-06-08 11:52:00,
2013-06-08 05:02:00,64.0,36.0,30.06,NW,304,5.0,7.0,36,-99.99,,,-99.99,0.000000,,2013-06-08 12:02:00,
2013-06-08 05:10:00,53.0,34.0,30.07,NW,321,4.0,5.0,47,-99.99,,,-99.99,0.000000,,2013-06-08 12:10:00,
2013-06-08 05:52:00,53.0,34.0,30.07,NW,321,4.0,5.0,47,-99.99,,,-99.99,0.000000,,2013-06-08 12:52:00,
2013-06-08 06:02:00,53.0,34.0,30.07,NW,321,4.0,5.0,47,-99.99,,,-99.99,0.000000,,2013-06-08 13:02:00,
2013-06-08 06:52:00,62.0,40.0,30.09,NW,325,4.0,6.0,43,-99.99,,,-99.99,120.000000,,2013-06-08 13:52:00,
2013-06-08 07:02:00,62.0,40.0,30.09,NW,325,4.0,6.0,43,-99.99,,,-99.99,120.000000,,2013-06-08 14:02:00,
2013-06-08 07:52:00,69.0,39.0,30.09,North,357,9.0,15.0,34,-99.99,,,-99.99,310.000000,,2013-06-08 14:52:00,
2013-06-08 08:02:00,69.0,39.0,30.09,North,357,9.0,15.0,34,-99.99,,,-99.99,310.000000,,2013-06-08 15:02:00,
2013-06-08 08:10:00,71.0,41.0,30.09,NNE,14,6.0,9.0,34,-99.99,,,-99.99,520.000000,,2013-06-08 15:10:00,
2013-06-08 08:53:00,71.0,41.0,30.09,NNE,14,6.0,9.0,34,-99.99,,,-99.99,520.000000,,2013-06-08 15:53:00,
2013-06-08 09:03:00,71.0,41.0,30.09,NNE,14,6.0,9.0,34,-99.99,,,-99.99,520.000000,,2013-06-08 16:03:00,
2013-06-08 09:10:00,75.0,43.0,30.09,NNE,14,6.0,12.0,32,-99.99,,,-99.99,710.000000,,2013-06-08 16:10:00,
2013-06-08 09:53:00,75.0,43.0,30.09,NNE,14,6.0,12.0,32,-99.99,,,-99.99,710.000000,,2013-06-08 16:53:00,
2013-06-08 10:02:00,75.0,43.0,30.09,NNE,14,6.0,12.0,32,-99.99,,,-99.99,710.000000,,2013-06-08 17:02:00,
2013-06-08 10:10:00,76.0,43.0,30.09,NNW,330,7.0,12.0,31,-99.99,,,-99.99,870.000000,,2013-06-08 17:10:00,
2013-06-08 10:52:00,76.0,43.0,30.09,NNW,330,7.0,12.0,31,-99.99,,,-99.99,870.000000,,2013-06-08 17:52:00,
2013-06-08 11:02:00,76.0,43.0,30.09,NNW,330,7.0,12.0,31,-99.99,,,-99.99,870.000000,,2013-06-08 18:02:00,
2013-06-08 11:10:00,78.0,42.0,30.09,East,85,4.0,8.0,28,-99.99,,,-99.99,980.000000,,2013-06-08 18:10:00,
2013-06-08 11:52:00,78.0,42.0,30.09,East,85,4.0,8.0,28,-99.99,,,-99.99,980.000000,,2013-06-08 18:52:00,
2013-06-08 12:02:00,78.0,42.0,30.09,East,85,4.0,8.0,28,-99.99,,,-99.99,980.000000,,2013-06-08 19:02:00,
2013-06-08 12:52:00,80.0,40.0,30.08,NW,316,4.0,8.0,24,-99.99,,,-99.99,1040.000000,,2013-06-08 19:52:00,
2013-06-08 13:02:00,80.0,40.0,30.08,NW,316,4.0,8.0,24,-99.99,,,-99.99,1040.000000,,2013-06-08 20:02:00,
2013-06-08 13:52:00,82.0,44.0,30.07,ENE,69,5.0,10.0,27,-99.99,,,-99.99,1050.000000,,2013-06-08 20:52:00,
2013-06-08 14:02:00,82.0,44.0,30.07,ENE,69,5.0,10.0,27,-99.99,,,-99.99,1050.000000,,2013-06-08 21:02:00,
2013-06-08 14:52:00,83.0,40.0,30.07,NE,37,8.0,15.0,22,-99.99,,,-99.99,990.000000,,2013-06-08 21:52:00,
2013-06-08 15:02:00,83.0,40.0,30.07,NE,37,8.0,15.0,22,-99.99,,,-99.99,990.000000,,2013-06-08 22:02:00,
2013-06-08 15:52:00,83.0,38.0,30.06,NE,41,10.0,17.0,20,-99.99,,,-99.99,880.000000,,2013-06-08 22:52:00,
2013-06-08 16:02:00,83.0,38.0,30.06,NE,41,10.0,17.0,20,-99.99,,,-99.99,880.000000,,2013-06-08 23:02:00,
2013-06-08 16:52:00,85.0,39.0,30.05,ENE,62,5.0,12.0,20,-99.99,,,-99.99,720.000000,,2013-06-08 23:52:00,
2013-06-08 17:02:00,85.0,39.0,30.05,ENE,62,5.0,12.0,20,-99.99,,,-99.99,720.000000,,2013-06-09 00:02:00,
2013-06-08 17:52:00,86.0,37.0,30.04,NE,42,6.0,11.0,18,-99.99,,,-99.99,530.000000,,2013-06-09 00:52:00,
2013-06-08 18:02:00,86.0,37.0,30.04,NE,42,6.0,11.0,18,-99.99,,,-99.99,530.000000,,2013-06-09 01:02:00,
2013-06-08 18:10:00,83.0,35.0,30.03,NNE,22,8.0,12.0,18,-99.99,,,-99.99,320.000000,,2013-06-09 01:10:00,
2013-06-08 18:52:00,83.0,35.0,30.03,NNE,22,8.0,12.0,18,-99.99,,,-99.99,320.000000,,2013-06-09 01:52:00,
2013-06-08 19:02:00,83.0,35.0,30.03,NNE,22,8.0,12.0,18,-99.99,,,-99.99,320.000000,,2013-06-09 02:02:00,
2013-06-08 19:10:00,81.0,35.0,30.03,North,10,5.0,6.0,19,-99.99,,,-99.99,130.000000,,2013-06-09 02:10:00,
2013-06-08 19:52:00,81.0,35.0,30.03,North,10,5.0,6.0,19,-99.99,,,-99.99,130.000000,,2013-06-09 02:52:00,
2013-06-08 20:02:00,81.0,35.0,30.03,North,10,5.0,6.0,19,-99.99,,,-99.99,130.000000,,2013-06-09 03:02:00,
2013-06-08 20:10:00,75.0,29.0,30.05,NW,323,6.0,8.0,18,-99.99,,,-99.99,10.000000,,2013-06-09 03:10:00,
2013-06-08 20:53:00,75.0,29.0,30.05,NW,323,6.0,8.0,18,-99.99,,,-99.99,10.000000,,2013-06-09 03:53:00,
2013-06-08 21:02:00,75.0,29.0,30.05,NW,323,6.0,8.0,18,-99.99,,,-99.99,10.000000,,2013-06-09 04:02:00,
2013-06-08 21:10:00,73.0,29.0,30.08,NNW,330,8.0,12.0,19,-99.99,,,-99.99,0.000000,,2013-06-09 04:10:00,
2013-06-08 21:52:00,73.0,29.0,30.08,NNW,330,8.0,12.0,19,-99.99,,,-99.99,0.000000,,2013-06-09 04:52:00,
2013-06-08 22:02:00,73.0,29.0,30.08,NNW,330,8.0,12.0,19,-99.99,,,-99.99,0.000000,,2013-06-09 05:02:00,
2013-06-08 22:10:00,68.0,29.0,30.11,NW,307,7.0,10.0,24,-99.99,,,-99.99,0.000000,,2013-06-09 05:10:00,
2013-06-08 22:52:00,68.0,29.0,30.11,NW,307,7.0,10.0,24,-99.99,,,-99.99,0.000000,,2013-06-09 05:52:00,
2013-06-08 23:02:00,68.0,29.0,30.11,NW,307,7.0,10.0,24,-99.99,,,-99.99,0.000000,,2013-06-09 06:02:00,
2013-06-08 23:10:00,66.0,30.0,30.12,WNW,297,6.0,7.0,26,-99.99,,,-99.99,0.000000,,2013-06-09 06:10:00,
2013-06-08 23:52:00,66.0,30.0,30.12,WNW,297,6.0,7.0,26,-99.99,,,-99.99,0.000000,,2013-06-09 06:52:00,